COSMOS 628

Satellite information

Favourite Embed

Satellite Type and Status

PAYLOADIN ORBIT

Key statistics

Satellite COSMOS 628 at a glance.

Uptime

18862

Days in orbit

Revolutions

≈ 13.8

Per day

Orbit

LEO

Low Earth Orbit

Inclination

83.0

Latest

Satellite identification and parameters

Extended collection of information and parameters for COSMOS 628.

Object identification

Identified? True

Debris? False

Object name: COSMOS 628

International designator: 1974-001A

Object number (NORAD): 7094

Object ID (CCSDS): 7094

Country: COMMONWEALTH OF INDEPENDENT STATES (CIS)

Current information (Y/N): Y

RCS size: LARGE

Orbital parameters

Period: 104.656 minutes

Inclination: 82.9575 deg

SMA: 7356.465 km

Apoapsis: 1004.758 km

Periapsis: 951.901 km

RAAN: 30.7151 deg

Eccentricy: 0.00359253

Argument of periapsis: 208.7141 deg

Mean anomaly: 267.4394 deg

Mean motion: 13.75938484 rev/day

Mean motion (dot): 0.00000048 rev/day2

B* drag term: 0.000034069142 1/REarth

Two-line elements (TLE)

Creation date: Sept. 8, 2025, 3:16 a.m.

Reference frame: TEME

Reference center: EARTH

Epoch: Sept. 7, 2025, 10:09 p.m. UTC

TLE line 0: 0 COSMOS 628

TLE line 1: 1 07094U 74001A 25250.92349821 .00000048 00000-0 34069-4 0 9992

TLE line 2: 2 07094 82.9575 30.7151 0035925 208.7141 267.4394 13.75938484591767

Live tracking on map

Real-time ground track for satellite COSMOS 628.

In-orbit conjunctions

A list of the most updated potential collisions computed for object COSMOS 628.

Target Orbit TCA Probability of collision Miss distance Type
YAOGAN 30 DEB SSO 2024-06-30 03:46:10 0.0001710607 164.0 (m) DEBRIS

Associated space launch

The first soviet navigation system called Tsiklon consisted of Zaliv satellites in low earth orbit.

COSMOS 628 was lifted into orbit during the mission ‘Kosmos-3M | Zaliv 16’, on board a Kosmos-3M space rocket.

The launch took place on Jan. 17, 1974, 10:07 a.m. from 132/2.

For more information about the launch, click the button.

Launch to space Kosmos-3M | Zaliv 16
Kosmos-3M | Zaliv 16

Agency: N/A

Status: Launch Successful

Launch date: Jan. 17, 1974, 10:07 a.m. UTC

Rocket: Kosmos-3M

Launch pad: 132/2

Location: Plesetsk Cosmodrome, Russian Federation

...

Latest news about this satellite

There are no fresh news available about this satellite. Check back as we update our databases every day.


Newsletter sign-up

Weekly statistics, charts and insights to help you stay on top of the space industry.